Time,TemperatureF,DewpointF,PressureIn,WindDirection,WindDirectionDegrees,WindSpeedMPH,WindSpeedGustMPH,Humidity,HourlyPrecipIn,Conditions,Clouds,dailyrainin,SoftwareType,DateUTC
2013-06-21 00:21:00,79.9,63.3,29.90,SW,225,2.7,-999.0,57,-99.99,,,0.00,Acu-Link.com,2013-06-21 05:21:00,
2013-06-21 00:43:00,80.4,64.7,29.89,SE,135,2.7,-999.0,59,-99.99,,,0.00,Acu-Link.com,2013-06-21 05:43:00,
2013-06-21 00:59:00,81.5,64.8,29.89,SSE,157,1.7,-999.0,57,-99.99,,,0.00,Acu-Link.com,2013-06-21 05:59:00,
2013-06-21 01:14:00,81.5,64.8,29.90,SSE,157,7.8,-999.0,57,-99.99,,,0.00,Acu-Link.com,2013-06-21 06:14:00,
2013-06-21 01:29:00,81.0,64.8,29.89,SE,135,2.7,-999.0,58,-99.99,,,0.00,Acu-Link.com,2013-06-21 06:29:00,
2013-06-21 01:45:00,80.8,65.1,29.90,SW,225,1.7,-999.0,59,-99.99,,,0.00,Acu-Link.com,2013-06-21 06:45:00,
2013-06-21 02:00:00,80.4,65.7,29.89,SSW,202,2.2,-999.0,61,-99.99,,,0.00,Acu-Link.com,2013-06-21 07:00:00,
2013-06-21 02:15:00,80.1,65.9,29.90,South,180,2.7,-999.0,62,-99.99,,,0.00,Acu-Link.com,2013-06-21 07:15:00,
2013-06-21 02:30:00,79.5,66.2,29.90,SSE,157,1.7,-999.0,64,-99.99,,,0.00,Acu-Link.com,2013-06-21 07:30:00,
2013-06-21 02:45:00,79.0,66.7,29.89,SSE,157,1.7,-999.0,66,-99.99,,,0.00,Acu-Link.com,2013-06-21 07:45:00,
2013-06-21 03:01:00,78.6,66.7,29.89,South,180,2.2,-999.0,67,-99.99,,,0.00,Acu-Link.com,2013-06-21 08:01:00,
2013-06-21 03:16:00,78.6,67.1,29.89,SSE,157,2.7,-999.0,68,-99.99,,,0.00,Acu-Link.com,2013-06-21 08:16:00,
2013-06-21 03:31:00,78.1,67.1,29.88,SSE,157,3.7,-999.0,69,-99.99,,,0.00,Acu-Link.com,2013-06-21 08:31:00,
2013-06-21 03:46:00,77.5,67.3,29.89,SSE,157,2.7,-999.0,71,-99.99,,,0.00,Acu-Link.com,2013-06-21 08:46:00,
2013-06-21 04:02:00,77.4,67.6,29.89,SSE,157,4.2,-999.0,72,-99.99,,,0.00,Acu-Link.com,2013-06-21 09:02:00,
2013-06-21 04:17:00,77.0,68.1,29.89,SSE,157,1.7,-999.0,74,-99.99,,,0.00,Acu-Link.com,2013-06-21 09:17:00,
2013-06-21 04:32:00,76.6,68.5,29.90,SE,135,2.7,-999.0,76,-99.99,,,0.00,Acu-Link.com,2013-06-21 09:32:00,
2013-06-21 04:47:00,76.5,68.7,29.89,SSE,157,2.7,-999.0,77,-99.99,,,0.00,Acu-Link.com,2013-06-21 09:47:00,
2013-06-21 05:02:00,76.1,69.1,29.89,ESE,112,2.7,-999.0,79,-99.99,,,0.00,Acu-Link.com,2013-06-21 10:02:00,
2013-06-21 05:17:00,75.9,69.3,29.89,SE,135,3.2,-999.0,80,-99.99,,,0.00,Acu-Link.com,2013-06-21 10:17:00,
2013-06-21 05:33:00,75.7,69.4,29.89,SE,135,3.7,-999.0,81,-99.99,,,0.00,Acu-Link.com,2013-06-21 10:33:00,
2013-06-21 05:48:00,75.6,69.7,29.89,South,180,2.7,-999.0,82,-99.99,,,0.00,Acu-Link.com,2013-06-21 10:48:00,
2013-06-21 06:03:00,75.2,69.3,29.89,SSE,157,1.7,-999.0,82,-99.99,,,0.00,Acu-Link.com,2013-06-21 11:03:00,
2013-06-21 06:18:00,75.2,69.7,29.89,SSE,157,1.7,-999.0,83,-99.99,,,0.00,Acu-Link.com,2013-06-21 11:18:00,
2013-06-21 06:34:00,75.0,69.5,29.90,South,180,2.2,-999.0,83,-99.99,,,0.00,Acu-Link.com,2013-06-21 11:34:00,
2013-06-21 06:49:00,74.8,69.6,29.89,SE,135,2.2,-999.0,84,-99.99,,,0.00,Acu-Link.com,2013-06-21 11:49:00,
2013-06-21 07:04:00,74.7,69.9,29.88,SSE,157,3.2,-999.0,85,-99.99,,,0.00,Acu-Link.com,2013-06-21 12:04:00,
2013-06-21 07:20:00,74.7,69.9,29.89,SSE,157,4.7,-999.0,85,-99.99,,,0.00,Acu-Link.com,2013-06-21 12:20:00,
2013-06-21 07:35:00,75.4,70.2,29.91,SE,135,5.8,-999.0,84,-99.99,,,0.00,Acu-Link.com,2013-06-21 12:35:00,
2013-06-21 07:50:00,76.3,70.4,29.90,SSE,157,4.2,-999.0,82,-99.99,,,0.00,Acu-Link.com,2013-06-21 12:50:00,
2013-06-21 08:05:00,77.2,70.5,29.90,ESE,112,3.2,-999.0,80,-99.99,,,0.00,Acu-Link.com,2013-06-21 13:05:00,
2013-06-21 08:21:00,78.4,70.6,29.92,SSW,202,8.3,-999.0,77,-99.99,,,0.00,Acu-Link.com,2013-06-21 13:21:00,
2013-06-21 08:36:00,79.7,70.3,29.91,West,270,7.8,-999.0,73,-99.99,,,0.00,Acu-Link.com,2013-06-21 13:36:00,
2013-06-21 08:51:00,81.5,70.3,29.91,SSE,157,4.7,-999.0,69,-99.99,,,0.00,Acu-Link.com,2013-06-21 13:51:00,
2013-06-21 09:21:00,82.8,69.4,29.92,SSE,157,3.7,-999.0,64,-99.99,,,0.00,Acu-Link.com,2013-06-21 14:21:00,
2013-06-21 09:37:00,84.2,69.7,29.92,WSW,247,2.7,-999.0,62,-99.99,,,0.00,Acu-Link.com,2013-06-21 14:37:00,
2013-06-21 09:52:00,86.2,69.7,29.91,SSW,202,4.7,-999.0,58,-99.99,,,0.00,Acu-Link.com,2013-06-21 14:52:00,
2013-06-21 10:22:00,86.9,68.8,29.91,SW,225,11.9,-999.0,55,-99.99,,,0.00,Acu-Link.com,2013-06-21 15:22:00,
2013-06-21 10:37:00,87.1,68.4,29.91,West,270,6.8,-999.0,54,-99.99,,,0.00,Acu-Link.com,2013-06-21 15:37:00,
2013-06-21 10:53:00,87.3,68.0,29.91,SSW,202,3.7,-999.0,53,-99.99,,,0.00,Acu-Link.com,2013-06-21 15:53:00,
2013-06-21 11:23:00,90.7,67.7,29.91,ESE,112,5.3,-999.0,47,-99.99,,,0.00,Acu-Link.com,2013-06-21 16:23:00,
2013-06-21 11:39:00,89.6,67.9,29.91,SSE,157,4.7,-999.0,49,-99.99,,,0.00,Acu-Link.com,2013-06-21 16:39:00,
2013-06-21 11:54:00,92.3,67.2,29.90,SE,135,4.2,-999.0,44,-99.99,,,0.00,Acu-Link.com,2013-06-21 16:54:00,
2013-06-21 12:09:00,92.8,67.6,29.91,SSW,202,6.3,-999.0,44,-99.99,,,0.00,Acu-Link.com,2013-06-21 17:09:00,
2013-06-21 12:25:00,92.1,65.7,29.90,SE,135,2.7,-999.0,42,-99.99,,,0.00,Acu-Link.com,2013-06-21 17:25:00,
2013-06-21 12:40:00,94.5,66.4,29.89,SSE,157,14.0,-999.0,40,-99.99,,,0.00,Acu-Link.com,2013-06-21 17:40:00,
2013-06-21 12:55:00,95.0,66.1,29.89,South,180,7.8,-999.0,39,-99.99,,,0.00,Acu-Link.com,2013-06-21 17:55:00,
2013-06-21 13:10:00,95.5,65.8,29.88,SW,225,5.8,-999.0,38,-99.99,,,0.00,Acu-Link.com,2013-06-21 18:10:00,
2013-06-21 13:25:00,96.1,64.8,29.89,SSW,202,7.3,-999.0,36,-99.99,,,0.00,Acu-Link.com,2013-06-21 18:25:00,
2013-06-21 13:40:00,97.0,64.7,29.87,SSE,157,4.7,-999.0,35,-99.99,,,0.00,Acu-Link.com,2013-06-21 18:40:00,
2013-06-21 13:55:00,97.3,64.2,29.86,SW,225,7.3,-999.0,34,-99.99,,,0.00,Acu-Link.com,2013-06-21 18:55:00,
2013-06-21 14:11:00,98.4,65.1,29.86,WSW,247,2.2,-999.0,34,-99.99,,,0.00,Acu-Link.com,2013-06-21 19:11:00,
2013-06-21 14:26:00,98.6,62.7,29.84,SSE,157,8.9,-999.0,31,-99.99,,,0.00,Acu-Link.com,2013-06-21 19:26:00,
2013-06-21 14:41:00,100.2,63.1,29.86,SSE,157,7.8,-999.0,30,-99.99,,,0.00,Acu-Link.com,2013-06-21 19:41:00,
2013-06-21 14:56:00,100.4,63.3,29.86,West,270,4.7,-999.0,30,-99.99,,,0.00,Acu-Link.com,2013-06-21 19:56:00,
2013-06-21 15:11:00,100.2,61.1,29.86,SW,225,5.8,-999.0,28,-99.99,,,0.00,Acu-Link.com,2013-06-21 20:11:00,
2013-06-21 15:26:00,101.5,63.2,29.85,ESE,112,4.7,-999.0,29,-99.99,,,0.00,Acu-Link.com,2013-06-21 20:26:00,
2013-06-21 15:57:00,100.6,61.5,29.84,SSW,202,4.7,-999.0,28,-99.99,,,0.00,Acu-Link.com,2013-06-21 20:57:00,
2013-06-21 16:13:00,100.8,61.7,29.84,SSW,202,5.8,-999.0,28,-99.99,,,0.00,Acu-Link.com,2013-06-21 21:13:00,
2013-06-21 16:28:00,101.8,61.5,29.84,NE,45,7.8,-999.0,27,-99.99,,,0.00,Acu-Link.com,2013-06-21 21:28:00,
2013-06-21 16:43:00,100.4,60.3,29.82,SW,225,3.7,-999.0,27,-99.99,,,0.00,Acu-Link.com,2013-06-21 21:43:00,
2013-06-21 16:58:00,100.8,58.5,29.83,SSE,157,7.3,-999.0,25,-99.99,,,0.00,Acu-Link.com,2013-06-21 21:58:00,
2013-06-21 17:13:00,100.4,60.3,29.82,North,0,5.3,-999.0,27,-99.99,,,0.00,Acu-Link.com,2013-06-21 22:13:00,
2013-06-21 17:29:00,101.5,61.2,29.82,SSE,157,6.3,-999.0,27,-99.99,,,0.00,Acu-Link.com,2013-06-21 22:29:00,
2013-06-21 17:44:00,100.9,60.7,29.81,South,180,3.2,-999.0,27,-99.99,,,0.00,Acu-Link.com,2013-06-21 22:44:00,
2013-06-21 17:59:00,100.6,59.4,29.81,South,180,6.8,-999.0,26,-99.99,,,0.00,Acu-Link.com,2013-06-21 22:59:00,
2013-06-21 18:15:00,98.1,59.4,29.80,South,180,8.9,-999.0,28,-99.99,,,0.00,Acu-Link.com,2013-06-21 23:15:00,
2013-06-21 18:30:00,99.5,60.6,29.81,SE,135,4.7,-999.0,28,-99.99,,,0.00,Acu-Link.com,2013-06-21 23:30:00,
2013-06-21 18:45:00,98.4,60.6,29.80,SE,135,3.7,-999.0,29,-99.99,,,0.00,Acu-Link.com,2013-06-21 23:45:00,
2013-06-21 19:00:00,96.8,61.1,29.81,SSE,157,7.8,-999.0,31,-99.99,,,0.00,Acu-Link.com,2013-06-22 00:00:00,
2013-06-21 19:15:00,96.4,60.8,29.81,ESE,112,8.3,-999.0,31,-99.99,,,0.00,Acu-Link.com,2013-06-22 00:15:00,
2013-06-21 19:31:00,94.6,61.8,29.81,ESE,112,9.4,-999.0,34,-99.99,,,0.00,Acu-Link.com,2013-06-22 00:31:00,
2013-06-21 19:46:00,93.4,61.6,29.81,SSE,157,7.3,-999.0,35,-99.99,,,0.00,Acu-Link.com,2013-06-22 00:46:00,
2013-06-21 20:02:00,91.8,61.8,29.83,ESE,112,3.7,-999.0,37,-99.99,,,0.00,Acu-Link.com,2013-06-22 01:02:00,
2013-06-21 20:17:00,90.7,60.8,29.83,SE,135,4.2,-999.0,37,-99.99,,,0.00,Acu-Link.com,2013-06-22 01:17:00,
2013-06-21 20:32:00,89.6,60.6,29.82,SSE,157,6.8,-999.0,38,-99.99,,,0.00,Acu-Link.com,2013-06-22 01:32:00,
2013-06-21 20:48:00,88.5,60.3,29.82,SSE,157,6.3,-999.0,39,-99.99,,,0.00,Acu-Link.com,2013-06-22 01:48:00,
2013-06-21 21:03:00,88.0,59.9,29.82,South,180,5.8,-999.0,39,-99.99,,,0.00,Acu-Link.com,2013-06-22 02:03:00,
2013-06-21 21:18:00,87.4,60.1,29.82,SSE,157,6.8,-999.0,40,-99.99,,,0.00,Acu-Link.com,2013-06-22 02:18:00,
2013-06-21 21:33:00,86.7,59.5,29.84,SSE,157,4.2,-999.0,40,-99.99,,,0.00,Acu-Link.com,2013-06-22 02:33:00,
2013-06-21 21:49:00,86.2,59.7,29.85,South,180,2.7,-999.0,41,-99.99,,,0.00,Acu-Link.com,2013-06-22 02:49:00,
2013-06-21 22:04:00,85.8,59.3,29.85,SSE,157,3.7,-999.0,41,-99.99,,,0.00,Acu-Link.com,2013-06-22 03:04:00,
2013-06-21 22:19:00,85.3,59.6,29.87,SSE,157,4.7,-999.0,42,-99.99,,,0.00,Acu-Link.com,2013-06-22 03:19:00,
2013-06-21 22:34:00,84.9,59.2,29.87,SSW,202,2.2,-999.0,42,-99.99,,,0.00,Acu-Link.com,2013-06-22 03:34:00,
2013-06-21 22:49:00,84.4,59.4,29.88,South,180,3.2,-999.0,43,-99.99,,,0.00,Acu-Link.com,2013-06-22 03:49:00,
2013-06-21 23:05:00,83.5,59.9,29.87,South,180,4.2,-999.0,45,-99.99,,,0.00,Acu-Link.com,2013-06-22 04:05:00,
2013-06-21 23:20:00,82.9,60.0,29.88,SE,135,3.2,-999.0,46,-99.99,,,0.00,Acu-Link.com,2013-06-22 04:20:00,
2013-06-21 23:35:00,82.2,59.9,29.87,South,180,1.7,-999.0,47,-99.99,,,0.00,Acu-Link.com,2013-06-22 04:35:00,
2013-06-21 23:50:00,81.7,60.1,29.87,SSE,157,3.7,-999.0,48,-99.99,,,0.00,Acu-Link.com,2013-06-22 04:50:00,